HAZ4102 ZWWW-ZYTX

Flight info

Callsign HAZ4102
Flight time 3h 49m
Altitude 35100
Route WUR W190 ADPET/K0830S1130 W188 LIKMI W270 DKO W69 BAXOD/K0837S1160 B208 HET/K0837S1130 G218 TMR W86 KAKAT W31 CHG A575 OMDUS OMD61A
Aircraft A319/M-SDE3FGHIRWY/LB1

Departure

Time 2026-04-21 19:36
Airport Ürümqi Tianshan International Airport (ZWWW)

Arrival

Time 2026-04-21 23:25
Airport Shenyang Taoxian International Airport (ZYTX)
Time Latitude Longitude Altitude Speed Heading
2026-04-21 19:12 43.91783 87.46844 2136 ft 0 kts 74°
2026-04-21 19:24 43.91783 87.46841 2136 ft 3 kts 73°
2026-04-21 19:24 43.91773 87.46807 2134 ft 4 kts 59°
2026-04-21 19:24 43.91757 87.46778 2133 ft 4 kts 35°
2026-04-21 19:25 43.91734 87.46765 2136 ft 4 kts 352°
2026-04-21 19:25 43.91727 87.46767 2134 ft 0 kts 343°
2026-04-21 19:28 43.91729 87.46766 2136 ft 1 kts 343°
2026-04-21 19:29 43.91748 87.46758 2132 ft 5 kts 343°
2026-04-21 19:29 43.91800 87.46737 2136 ft 11 kts 343°
2026-04-21 19:29 43.91894 87.46699 2136 ft 17 kts 343°
2026-04-21 19:29 43.92007 87.46718 2136 ft 18 kts 57°
2026-04-21 19:30 43.92046 87.46893 2136 ft 21 kts 74°
2026-04-21 19:30 43.92089 87.47098 2136 ft 24 kts 73°
2026-04-21 19:30 43.92137 87.47328 2135 ft 25 kts 73°
2026-04-21 19:30 43.92187 87.47555 2136 ft 25 kts 73°
2026-04-21 19:31 43.92235 87.47783 2134 ft 25 kts 73°
2026-04-21 19:31 43.92285 87.48010 2136 ft 25 kts 73°
2026-04-21 19:31 43.92335 87.48240 2133 ft 25 kts 73°
2026-04-21 19:31 43.92384 87.48472 2136 ft 25 kts 74°
2026-04-21 19:32 43.92434 87.48705 2133 ft 25 kts 73°
2026-04-21 19:32 43.92467 87.48884 2136 ft 7 kts 81°
2026-04-21 19:32 43.92477 87.48960 2135 ft 9 kts 77°
2026-04-21 19:32 43.92497 87.49058 2134 ft 13 kts 72°
2026-04-21 19:33 43.92518 87.49152 2136 ft 18 kts 55°
2026-04-21 19:33 43.92589 87.49424 2136 ft 27 kts 73°
2026-04-21 19:33 43.92702 87.49446 2135 ft 17 kts 341°
2026-04-21 19:33 43.92726 87.49435 2135 ft 0 kts 342°
2026-04-21 19:34 43.92727 87.49435 2135 ft 0 kts 342°
2026-04-21 19:34 43.92732 87.49433 2135 ft 1 kts 342°
2026-04-21 19:34 43.92752 87.49425 2135 ft 5 kts 344°
2026-04-21 19:35 43.92813 87.49401 2135 ft 14 kts 344°
2026-04-21 19:35 43.92786 87.49134 2135 ft 58 kts 253°
2026-04-21 19:35 43.92610 87.48303 2135 ft 120 kts 253°
2026-04-21 19:36 43.92314 87.46970 2162 ft 163 kts 250°
2026-04-21 19:36 43.91998 87.45524 2779 ft 155 kts 252°
2026-04-21 19:36 43.91692 87.44081 3297 ft 157 kts 251°
2026-04-21 19:36 43.91374 87.42589 3681 ft 169 kts 250°
2026-04-21 19:37 43.91023 87.40948 3931 ft 191 kts 250°
2026-04-21 19:37 43.90621 87.39072 4142 ft 216 kts 250°
2026-04-21 19:37 43.90173 87.36979 4483 ft 238 kts 250°
2026-04-21 19:37 43.89689 87.34714 5130 ft 248 kts 250°
2026-04-21 19:38 43.89197 87.32409 5944 ft 251 kts 252°
2026-04-21 19:38 43.88700 87.30083 6725 ft 255 kts 253°
2026-04-21 19:38 43.88363 87.28514 7252 ft 257 kts 253°
2026-04-21 19:38 43.88273 87.25243 8305 ft 260 kts 290°
2026-04-21 19:39 43.89296 87.23204 9102 ft 262 kts 322°
2026-04-21 19:39 43.90951 87.22153 9912 ft 264 kts 343°
2026-04-21 19:39 43.92697 87.21438 10662 ft 266 kts 343°
2026-04-21 19:39 43.94481 87.20715 11401 ft 268 kts 342°
2026-04-21 19:40 43.96282 87.19979 12145 ft 271 kts 342°
2026-04-21 19:40 43.98138 87.19213 12486 ft 291 kts 341°
2026-04-21 19:40 44.00165 87.18369 12670 ft 314 kts 341°
2026-04-21 19:40 44.02332 87.17464 12832 ft 337 kts 341°
2026-04-21 19:41 44.04655 87.16496 12964 ft 359 kts 341°
2026-04-21 19:41 44.07098 87.15479 13297 ft 372 kts 341°
2026-04-21 19:41 44.09600 87.14438 13883 ft 378 kts 341°
2026-04-21 19:41 44.12192 87.13760 14428 ft 386 kts 358°
2026-04-21 19:42 44.14806 87.14473 14992 ft 396 kts 21°
2026-04-21 19:42 44.17084 87.16663 15574 ft 405 kts 45°
2026-04-21 19:42 44.18632 87.19966 16164 ft 412 kts 62°
2026-04-21 19:42 44.19840 87.23591 16766 ft 415 kts 65°
2026-04-21 19:43 44.20961 87.27272 17340 ft 419 kts 66°
2026-04-21 19:43 44.22071 87.31085 17927 ft 422 kts 66°
2026-04-21 19:43 44.23174 87.34899 18461 ft 425 kts 66°
2026-04-21 19:43 44.24299 87.38717 18940 ft 428 kts 65°
2026-04-21 19:44 44.25443 87.42512 19399 ft 430 kts 65°
2026-04-21 19:44 44.26621 87.46343 19862 ft 433 kts 64°
2026-04-21 19:44 44.27822 87.50215 20317 ft 435 kts 64°
2026-04-21 19:44 44.29027 87.54102 20763 ft 438 kts 64°
2026-04-21 19:45 44.30234 87.58021 21200 ft 441 kts 65°
2026-04-21 19:45 44.31443 87.61962 21628 ft 443 kts 65°
2026-04-21 19:45 44.32775 87.65836 22041 ft 444 kts 58°
2026-04-21 19:45 44.34518 87.69406 22454 ft 444 kts 49°
2026-04-21 19:46 44.36598 87.72496 22861 ft 443 kts 40°
2026-04-21 19:46 44.38895 87.75377 23304 ft 444 kts 39°
2026-04-21 19:46 44.41195 87.78277 23678 ft 447 kts 39°
2026-04-21 19:46 44.43504 87.81211 23998 ft 450 kts 40°
2026-04-21 19:47 44.45820 87.84172 24330 ft 452 kts 40°
2026-04-21 19:47 44.48141 87.87148 24664 ft 453 kts 40°
2026-04-21 19:47 44.50472 87.90139 24995 ft 455 kts 40°
2026-04-21 19:47 44.52662 87.93361 25306 ft 460 kts 49°
2026-04-21 19:48 44.54419 87.97135 25619 ft 466 kts 60°
2026-04-21 19:48 44.55666 88.01347 25925 ft 471 kts 71°
2026-04-21 19:48 44.56341 88.05789 26223 ft 476 kts 82°
2026-04-21 19:48 44.56419 88.10441 26522 ft 480 kts 93°
2026-04-21 19:49 44.56019 88.15104 26825 ft 482 kts 96°
2026-04-21 19:49 44.55587 88.19776 27117 ft 484 kts 96°
2026-04-21 19:49 44.55159 88.24461 27400 ft 486 kts 95°
2026-04-21 19:49 44.54738 88.29166 27734 ft 486 kts 95°
2026-04-21 19:50 44.54463 88.32282 28016 ft 485 kts 95°
2026-04-21 19:50 44.53906 88.38550 28570 ft 484 kts 95°
2026-04-21 19:50 44.53492 88.43150 28991 ft 483 kts 95°
2026-04-21 19:50 44.53065 88.47818 29409 ft 482 kts 95°
2026-04-21 19:51 44.52639 88.52465 29853 ft 480 kts 95°
2026-04-21 19:51 44.52238 88.56953 30238 ft 479 kts 95°
2026-04-21 19:51 44.51833 88.61577 30602 ft 478 kts 94°
2026-04-21 19:51 44.51433 88.66200 30963 ft 477 kts 94°
2026-04-21 19:52 44.51032 88.70804 31319 ft 476 kts 94°
2026-04-21 19:52 44.50628 88.75401 31677 ft 475 kts 94°
2026-04-21 19:52 44.50221 88.79988 32048 ft 474 kts 94°
2026-04-21 19:52 44.49818 88.84505 32407 ft 473 kts 94°
2026-04-21 19:53 44.49406 88.89080 32796 ft 472 kts 94°
2026-04-21 19:53 44.48992 88.93632 33179 ft 471 kts 93°
2026-04-21 19:53 44.48573 88.98180 33549 ft 470 kts 93°
2026-04-21 19:53 44.48152 89.02712 33924 ft 469 kts 93°
2026-04-21 19:54 44.47730 89.07244 34247 ft 468 kts 93°
2026-04-21 19:54 44.47324 89.11616 34536 ft 468 kts 94°
2026-04-21 19:54 44.46889 89.16285 34837 ft 468 kts 94°
2026-04-21 19:54 44.46473 89.20740 35042 ft 469 kts 94°
2026-04-21 19:55 44.46045 89.25277 35113 ft 471 kts 94°
2026-04-21 19:55 44.45177 89.34365 35100 ft 471 kts 94°
2026-04-21 19:56 44.44290 89.43454 35091 ft 471 kts 94°
2026-04-21 19:56 44.43406 89.52482 35100 ft 471 kts 94°
2026-04-21 19:57 44.42516 89.61565 35103 ft 471 kts 94°
2026-04-21 19:57 44.41463 89.70620 35096 ft 474 kts 102°
2026-04-21 19:58 44.39560 89.79473 35098 ft 475 kts 103°
2026-04-21 19:58 44.37645 89.88304 35099 ft 475 kts 103°
2026-04-21 19:59 44.35743 89.97071 35099 ft 475 kts 103°
2026-04-21 19:59 44.33818 90.05895 35106 ft 475 kts 104°
2026-04-21 20:00 44.31877 90.14712 35098 ft 475 kts 104°
2026-04-21 20:00 44.29939 90.23525 35099 ft 475 kts 103°
2026-04-21 20:01 44.27996 90.32321 35106 ft 475 kts 104°
2026-04-21 20:01 44.26046 90.41078 35115 ft 475 kts 104°
2026-04-21 20:02 44.24085 90.49875 35117 ft 475 kts 104°
2026-04-21 20:02 44.22118 90.58652 35109 ft 474 kts 104°
2026-04-21 20:03 44.20149 90.67424 35114 ft 474 kts 104°
2026-04-21 20:03 44.18184 90.76131 35109 ft 474 kts 104°
2026-04-21 20:04 44.16199 90.84887 35125 ft 474 kts 104°
2026-04-21 20:04 44.14205 90.93625 35130 ft 474 kts 104°
2026-04-21 20:05 44.12209 91.02362 35126 ft 474 kts 104°
2026-04-21 20:05 44.10225 91.11037 35126 ft 473 kts 104°
2026-04-21 20:06 44.08222 91.19763 35135 ft 474 kts 104°
2026-04-21 20:06 44.06204 91.28483 35133 ft 474 kts 105°
2026-04-21 20:07 44.04173 91.37195 35124 ft 474 kts 105°
2026-04-21 20:07 44.02489 91.44436 35126 ft 474 kts 105°
2026-04-21 20:08 44.00112 91.54549 35128 ft 474 kts 105°
2026-04-21 20:08 43.98044 91.63248 35125 ft 474 kts 105°
2026-04-21 20:09 43.95973 91.71946 35125 ft 475 kts 105°
2026-04-21 20:09 43.93907 91.80586 35124 ft 475 kts 105°
2026-04-21 20:10 43.91820 91.89271 35127 ft 475 kts 105°
2026-04-21 20:10 43.89724 91.97961 35138 ft 475 kts 106°
2026-04-21 20:11 43.87626 92.06655 35130 ft 476 kts 106°
2026-04-21 20:11 43.85520 92.15341 35131 ft 476 kts 106°
2026-04-21 20:12 43.83423 92.23968 35126 ft 476 kts 106°
2026-04-21 20:12 43.81662 92.31187 35143 ft 476 kts 106°
2026-04-21 20:13 43.79175 92.41330 35132 ft 476 kts 107°
2026-04-21 20:13 43.77042 92.50003 35135 ft 476 kts 107°
2026-04-21 20:14 43.74908 92.58614 35134 ft 476 kts 107°
2026-04-21 20:14 43.72750 92.67280 35156 ft 476 kts 107°
2026-04-21 20:15 43.70598 92.75939 35150 ft 477 kts 107°
2026-04-21 20:15 43.68436 92.84603 35149 ft 477 kts 107°
2026-04-21 20:16 43.66278 92.93196 35155 ft 477 kts 107°
2026-04-21 20:16 43.64099 93.01845 35151 ft 477 kts 107°
2026-04-21 20:17 43.62013 93.10536 35170 ft 477 kts 106°
2026-04-21 20:17 43.59971 93.19240 35162 ft 477 kts 106°
2026-04-21 20:18 43.58254 93.26465 35146 ft 477 kts 106°
2026-04-21 20:18 43.55819 93.36553 35148 ft 477 kts 107°
2026-04-21 20:19 43.53711 93.45229 35155 ft 477 kts 107°
2026-04-21 20:19 43.51595 93.53902 35158 ft 478 kts 107°
2026-04-21 20:20 43.49472 93.62572 35161 ft 478 kts 107°
2026-04-21 20:20 43.47363 93.71179 35157 ft 478 kts 107°
2026-04-21 20:21 43.45232 93.79843 35160 ft 478 kts 107°
2026-04-21 20:21 43.43096 93.88491 35171 ft 478 kts 107°
2026-04-21 20:22 43.40949 93.97145 35165 ft 478 kts 107°
2026-04-21 20:22 43.37744 94.10056 35162 ft 478 kts 107°
2026-04-21 20:23 43.35588 94.18685 35157 ft 478 kts 107°
2026-04-21 20:23 43.33423 94.27312 35162 ft 477 kts 107°
2026-04-21 20:24 43.31247 94.35913 35168 ft 477 kts 107°
2026-04-21 20:24 43.29081 94.44447 35156 ft 476 kts 107°
2026-04-21 20:25 43.26903 94.53022 35158 ft 476 kts 107°
2026-04-21 20:25 43.24719 94.61601 35167 ft 476 kts 107°
2026-04-21 20:26 43.22535 94.70156 35167 ft 475 kts 107°
2026-04-21 20:26 43.20339 94.78698 35147 ft 475 kts 107°
2026-04-21 20:27 43.18155 94.87165 35139 ft 475 kts 107°
2026-04-21 20:27 43.15948 94.95688 35143 ft 474 kts 107°
2026-04-21 20:28 43.13482 95.04061 35133 ft 476 kts 117°
2026-04-21 20:28 43.09416 95.11199 35128 ft 478 kts 137°
2026-04-21 20:29 43.04090 95.16544 35125 ft 479 kts 146°
2026-04-21 20:29 42.98585 95.21671 35118 ft 479 kts 145°
2026-04-21 20:30 42.93085 95.26805 35118 ft 479 kts 145°
2026-04-21 20:30 42.87577 95.31928 35118 ft 479 kts 145°
2026-04-21 20:31 42.82061 95.37031 35129 ft 479 kts 145°
2026-04-21 20:31 42.76573 95.42090 35133 ft 480 kts 146°
2026-04-21 20:32 42.71048 95.47178 35140 ft 480 kts 146°
2026-04-21 20:32 42.65523 95.52269 35134 ft 480 kts 145°
2026-04-21 20:33 42.59992 95.57345 35141 ft 480 kts 146°
2026-04-21 20:33 42.54481 95.62368 35147 ft 480 kts 146°
2026-04-21 20:34 42.48943 95.67427 35148 ft 480 kts 146°
2026-04-21 20:34 42.43698 95.72988 35157 ft 479 kts 131°
2026-04-21 20:35 42.40079 95.80433 35146 ft 473 kts 110°
2026-04-21 20:35 42.38536 95.88898 35141 ft 465 kts 90°
2026-04-21 20:36 42.38295 95.97625 35139 ft 464 kts 89°
2026-04-21 20:36 42.38043 96.06358 35140 ft 465 kts 89°
2026-04-21 20:37 42.37783 96.15063 35146 ft 465 kts 89°
2026-04-21 20:37 42.37538 96.23751 35144 ft 465 kts 89°
2026-04-21 20:38 42.37276 96.32493 35141 ft 466 kts 89°
2026-04-21 20:38 42.37002 96.41244 35141 ft 466 kts 89°
2026-04-21 20:39 42.36727 96.49991 35159 ft 466 kts 89°
2026-04-21 20:39 42.36445 96.58683 35151 ft 466 kts 89°
2026-04-21 20:40 42.36164 96.67425 35146 ft 465 kts 89°
2026-04-21 20:40 42.35867 96.76168 35144 ft 466 kts 89°
2026-04-21 20:41 42.35556 96.84912 35154 ft 466 kts 90°
2026-04-21 20:41 42.35248 96.93592 35150 ft 465 kts 90°
2026-04-21 20:42 42.34936 97.02327 35150 ft 465 kts 90°
2026-04-21 20:42 42.34614 97.11067 35147 ft 465 kts 90°
2026-04-21 20:43 42.34279 97.19801 35146 ft 465 kts 90°
2026-04-21 20:43 42.33951 97.28468 35145 ft 465 kts 90°
2026-04-21 20:44 42.33614 97.37199 35146 ft 465 kts 90°
2026-04-21 20:44 42.33265 97.45931 35146 ft 465 kts 90°
2026-04-21 20:45 42.32904 97.54659 35149 ft 465 kts 90°
2026-04-21 20:45 42.32547 97.63334 35160 ft 465 kts 90°
2026-04-21 20:46 42.32185 97.72059 35158 ft 465 kts 90°
2026-04-21 20:46 42.31873 97.79312 35161 ft 465 kts 90°
2026-04-21 20:47 42.31484 97.88030 35161 ft 465 kts 90°
2026-04-21 20:47 42.31090 97.96748 35158 ft 465 kts 90°
2026-04-21 20:48 42.30639 98.06886 35158 ft 465 kts 91°
2026-04-21 20:48 42.30312 98.14136 35154 ft 465 kts 90°
2026-04-21 20:49 42.29841 98.24340 35149 ft 466 kts 91°
2026-04-21 20:49 42.29493 98.31595 35148 ft 466 kts 91°
2026-04-21 20:50 42.29055 98.40326 35150 ft 466 kts 91°
2026-04-21 20:50 42.28601 98.49007 35148 ft 466 kts 91°
2026-04-21 20:51 42.28142 98.57749 35145 ft 467 kts 91°
2026-04-21 20:51 42.27600 98.67907 35139 ft 467 kts 91°
2026-04-21 20:52 42.27207 98.75229 35153 ft 467 kts 91°
2026-04-21 20:52 42.26736 98.83914 35144 ft 467 kts 91°
2026-04-21 20:53 42.26259 98.92662 35147 ft 467 kts 92°
2026-04-21 20:53 42.25766 99.01404 35137 ft 467 kts 92°
2026-04-21 20:54 42.25263 99.10146 35149 ft 467 kts 92°
2026-04-21 20:54 42.24761 99.18831 35141 ft 467 kts 92°
2026-04-21 20:55 42.24252 99.27569 35138 ft 467 kts 92°
2026-04-21 20:55 42.23737 99.36309 35142 ft 467 kts 92°
2026-04-21 20:56 42.23218 99.45044 35141 ft 467 kts 92°
2026-04-21 20:56 42.22695 99.53719 35143 ft 467 kts 92°
2026-04-21 20:57 42.22157 99.62450 35139 ft 467 kts 92°
2026-04-21 20:57 42.21610 99.71180 35136 ft 467 kts 92°
2026-04-21 20:58 42.21066 99.79903 35135 ft 467 kts 92°
2026-04-21 20:58 42.20511 99.88576 35143 ft 467 kts 92°
2026-04-21 20:59 42.19947 99.97298 35138 ft 467 kts 92°
2026-04-21 20:59 42.19384 100.06030 35132 ft 467 kts 92°
2026-04-21 21:00 42.18811 100.14755 35131 ft 467 kts 92°
2026-04-21 21:00 42.18221 100.23481 35143 ft 467 kts 92°
2026-04-21 21:01 42.17627 100.32144 35140 ft 467 kts 92°
2026-04-21 21:01 42.17039 100.40863 35137 ft 467 kts 92°
2026-04-21 21:02 42.16441 100.49583 35132 ft 467 kts 93°
2026-04-21 21:02 42.15826 100.58298 35140 ft 467 kts 93°
2026-04-21 21:03 42.15218 100.66939 35143 ft 466 kts 93°
2026-04-21 21:03 42.14604 100.75630 35142 ft 466 kts 93°
2026-04-21 21:04 42.13978 100.84313 35139 ft 465 kts 93°
2026-04-21 21:04 42.13340 100.92989 35139 ft 465 kts 93°
2026-04-21 21:05 42.12691 101.01600 35135 ft 466 kts 95°
2026-04-21 21:05 42.11013 101.10048 35134 ft 469 kts 107°
2026-04-21 21:06 42.08837 101.18330 35130 ft 469 kts 107°
2026-04-21 21:06 42.06667 101.26621 35129 ft 469 kts 107°
2026-04-21 21:07 42.04510 101.34849 35138 ft 469 kts 107°
2026-04-21 21:07 42.02328 101.43108 35142 ft 468 kts 107°
2026-04-21 21:08 42.00142 101.51347 35141 ft 467 kts 107°
2026-04-21 21:08 41.97951 101.59569 35139 ft 467 kts 107°
2026-04-21 21:09 41.95765 101.67787 35144 ft 467 kts 107°
2026-04-21 21:09 41.93592 101.75940 35138 ft 467 kts 107°
2026-04-21 21:10 41.91390 101.84134 35133 ft 467 kts 108°
2026-04-21 21:10 41.89177 101.92324 35130 ft 467 kts 108°
2026-04-21 21:11 41.86963 102.00513 35131 ft 467 kts 108°
2026-04-21 21:11 41.84765 102.08641 35133 ft 467 kts 108°
2026-04-21 21:12 41.82535 102.16813 35127 ft 467 kts 108°
2026-04-21 21:12 41.80310 102.24957 35124 ft 467 kts 108°
2026-04-21 21:13 41.78076 102.33133 35123 ft 467 kts 108°
2026-04-21 21:13 41.75828 102.41299 35130 ft 467 kts 108°
2026-04-21 21:14 41.73589 102.49412 35129 ft 468 kts 109°
2026-04-21 21:14 41.71325 102.57583 35121 ft 468 kts 109°
2026-04-21 21:15 41.69051 102.65765 35117 ft 470 kts 109°
2026-04-21 21:15 41.66765 102.73978 35119 ft 471 kts 109°
2026-04-21 21:16 41.64494 102.82144 35128 ft 473 kts 110°
2026-04-21 21:16 41.62188 102.90393 35121 ft 474 kts 110°
2026-04-21 21:17 41.59861 102.98639 35130 ft 475 kts 110°
2026-04-21 21:17 41.57534 103.06898 35136 ft 475 kts 110°
2026-04-21 21:18 41.55222 103.15112 35137 ft 476 kts 110°
2026-04-21 21:18 41.52875 103.23385 35129 ft 477 kts 111°
2026-04-21 21:19 41.50508 103.31675 35125 ft 479 kts 111°
2026-04-21 21:19 41.48128 103.39979 35133 ft 480 kts 111°
2026-04-21 21:20 41.45761 103.48233 35138 ft 480 kts 111°
2026-04-21 21:20 41.43374 103.56551 35137 ft 481 kts 111°
2026-04-21 21:21 41.40975 103.64880 35140 ft 482 kts 111°
2026-04-21 21:21 41.38566 103.73212 35141 ft 482 kts 111°
2026-04-21 21:22 41.36143 103.81531 35129 ft 482 kts 112°
2026-04-21 21:22 41.33724 103.89803 35112 ft 484 kts 112°
2026-04-21 21:23 41.31288 103.98169 35122 ft 486 kts 112°
2026-04-21 21:23 41.28834 104.06553 35122 ft 487 kts 112°
2026-04-21 21:24 41.26354 104.14942 35127 ft 488 kts 112°
2026-04-21 21:24 41.23886 104.23279 35123 ft 489 kts 113°
2026-04-21 21:25 41.21392 104.31686 35119 ft 490 kts 113°
2026-04-21 21:25 41.18897 104.40109 35115 ft 490 kts 113°
2026-04-21 21:26 41.16399 104.48536 35119 ft 491 kts 113°
2026-04-21 21:26 41.13900 104.56897 35117 ft 491 kts 113°
2026-04-21 21:27 41.11384 104.65250 35116 ft 491 kts 113°
2026-04-21 21:27 41.08806 104.73642 35118 ft 491 kts 115°
2026-04-21 21:28 41.06038 104.81909 35128 ft 491 kts 116°
2026-04-21 21:29 41.01797 104.94178 35132 ft 491 kts 116°
2026-04-21 21:29 40.98987 105.02428 35110 ft 492 kts 116°
2026-04-21 21:30 40.96184 105.10705 35120 ft 493 kts 116°
2026-04-21 21:30 40.93370 105.18989 35140 ft 494 kts 116°
2026-04-21 21:31 40.90554 105.27214 35152 ft 495 kts 117°
2026-04-21 21:31 40.87712 105.35501 35147 ft 495 kts 117°
2026-04-21 21:32 40.84855 105.43787 35154 ft 496 kts 117°
2026-04-21 21:32 40.81993 105.52070 35158 ft 497 kts 117°
2026-04-21 21:33 40.79141 105.60308 35156 ft 497 kts 117°
2026-04-21 21:33 40.76263 105.68603 35143 ft 498 kts 117°
2026-04-21 21:34 40.73375 105.76901 35144 ft 499 kts 117°
2026-04-21 21:34 40.70492 105.85165 35139 ft 499 kts 117°
2026-04-21 21:35 40.67580 105.93475 35139 ft 500 kts 117°
2026-04-21 21:35 40.64655 106.01785 35105 ft 500 kts 118°
2026-04-21 21:36 40.61726 106.10100 35102 ft 502 kts 118°
2026-04-21 21:36 40.58802 106.18380 35110 ft 503 kts 118°
2026-04-21 21:37 40.55838 106.26717 35122 ft 503 kts 118°
2026-04-21 21:37 40.52875 106.35059 35114 ft 504 kts 118°
2026-04-21 21:38 40.49905 106.43413 35131 ft 505 kts 118°
2026-04-21 21:38 40.46941 106.51709 35140 ft 505 kts 118°
2026-04-21 21:39 40.43948 106.60053 35148 ft 505 kts 119°
2026-04-21 21:39 40.40946 106.68390 35152 ft 505 kts 119°
2026-04-21 21:40 40.37939 106.76735 35140 ft 506 kts 119°
2026-04-21 21:40 40.34921 106.85073 35136 ft 507 kts 120°
2026-04-21 21:41 40.32413 106.93678 35131 ft 514 kts 105°
2026-04-21 21:41 40.31797 107.03005 35133 ft 517 kts 86°
2026-04-21 21:42 40.32851 107.12346 35117 ft 519 kts 80°
2026-04-21 21:42 40.34005 107.21637 35114 ft 521 kts 81°
2026-04-21 21:43 40.35147 107.31035 35121 ft 523 kts 81°
2026-04-21 21:43 40.36299 107.40452 35127 ft 523 kts 81°
2026-04-21 21:44 40.37451 107.49885 35144 ft 525 kts 81°
2026-04-21 21:44 40.38586 107.59278 35140 ft 525 kts 81°
2026-04-21 21:45 40.39718 107.68748 35151 ft 526 kts 81°
2026-04-21 21:45 40.40840 107.78223 35166 ft 525 kts 81°
2026-04-21 21:46 40.41958 107.87702 35166 ft 526 kts 81°
2026-04-21 21:46 40.43062 107.97121 35152 ft 526 kts 81°
2026-04-21 21:47 40.44160 108.06609 35152 ft 526 kts 81°
2026-04-21 21:47 40.45247 108.16097 35148 ft 526 kts 81°
2026-04-21 21:48 40.46335 108.25574 35155 ft 526 kts 81°
2026-04-21 21:48 40.47413 108.35010 35146 ft 526 kts 81°
2026-04-21 21:49 40.48485 108.44512 35145 ft 526 kts 81°
2026-04-21 21:49 40.49539 108.54026 35156 ft 527 kts 82°
2026-04-21 21:50 40.50598 108.63550 35164 ft 527 kts 82°
2026-04-21 21:50 40.51639 108.73006 35158 ft 527 kts 82°
2026-04-21 21:51 40.52677 108.82538 35148 ft 527 kts 82°
2026-04-21 21:51 40.53712 108.92080 35146 ft 528 kts 82°
2026-04-21 21:52 40.54749 109.01638 35148 ft 528 kts 82°
2026-04-21 21:52 40.55757 109.11138 35160 ft 528 kts 82°
2026-04-21 21:53 40.56759 109.20711 35132 ft 529 kts 82°
2026-04-21 21:53 40.57765 109.30305 35161 ft 529 kts 82°
2026-04-21 21:54 40.58767 109.39894 35169 ft 529 kts 82°
2026-04-21 21:54 40.59758 109.49484 35152 ft 529 kts 82°
2026-04-21 21:55 40.60737 109.59021 35155 ft 530 kts 82°
2026-04-21 21:55 40.61710 109.68648 35156 ft 531 kts 82°
2026-04-21 21:56 40.62679 109.78278 35163 ft 531 kts 82°
2026-04-21 21:56 40.63641 109.87932 35160 ft 532 kts 82°
2026-04-21 21:57 40.64554 109.97540 35173 ft 533 kts 85°
2026-04-21 21:57 40.64617 110.07292 35166 ft 533 kts 91°
2026-04-21 21:58 40.64568 110.17049 35157 ft 533 kts 91°
2026-04-21 21:58 40.64525 110.26806 35140 ft 533 kts 91°
2026-04-21 21:59 40.64469 110.36511 35134 ft 534 kts 91°
2026-04-21 21:59 40.64388 110.46288 35135 ft 534 kts 91°
2026-04-21 22:00 40.64306 110.56081 35126 ft 535 kts 91°
2026-04-21 22:00 40.64218 110.65873 35122 ft 535 kts 91°
2026-04-21 22:01 40.64124 110.75612 35129 ft 536 kts 91°
2026-04-21 22:01 40.64023 110.85419 35114 ft 536 kts 91°
2026-04-21 22:02 40.63909 110.95243 35120 ft 537 kts 91°
2026-04-21 22:02 40.63784 111.05096 35131 ft 538 kts 91°
2026-04-21 22:03 40.63654 111.14870 35154 ft 538 kts 91°
2026-04-21 22:03 40.63522 111.24716 35153 ft 538 kts 91°
2026-04-21 22:04 40.63385 111.34555 35157 ft 538 kts 91°
2026-04-21 22:04 40.63229 111.44326 35167 ft 538 kts 91°
2026-04-21 22:05 40.63058 111.54168 35168 ft 538 kts 91°
2026-04-21 22:05 40.62892 111.64011 35163 ft 538 kts 91°
2026-04-21 22:06 40.62720 111.73845 35166 ft 537 kts 91°
2026-04-21 22:06 40.62536 111.83615 35150 ft 538 kts 91°
2026-04-21 22:07 40.62516 111.93449 35145 ft 536 kts 79°
2026-04-21 22:07 40.63569 111.98088 35145 ft 525 kts 58°
2026-04-21 22:07 40.65597 112.01962 35139 ft 506 kts 37°
2026-04-21 22:07 40.68332 112.04663 35153 ft 480 kts 16°
2026-04-21 22:08 40.71406 112.05968 35139 ft 455 kts 360°
2026-04-21 22:08 40.77578 112.08026 35118 ft 467 kts
2026-04-21 22:09 40.83787 112.10646 35112 ft 469 kts
2026-04-21 22:09 40.90006 112.13267 35127 ft 470 kts
2026-04-21 22:10 40.96203 112.16095 35124 ft 480 kts 17°
2026-04-21 22:10 40.99068 112.18472 35127 ft 495 kts 31°
2026-04-21 22:10 41.01710 112.21315 35120 ft 496 kts 31°
2026-04-21 22:11 41.07054 112.27101 35111 ft 497 kts 32°
2026-04-21 22:11 41.12339 112.33028 35112 ft 499 kts 33°
2026-04-21 22:12 41.17566 112.39089 35099 ft 499 kts 33°
2026-04-21 22:12 41.22217 112.44485 35122 ft 498 kts 34°
2026-04-21 22:13 41.27413 112.50455 35112 ft 497 kts 33°
2026-04-21 22:13 41.32645 112.56454 35117 ft 496 kts 33°
2026-04-21 22:14 41.37858 112.62458 35141 ft 495 kts 34°
2026-04-21 22:14 41.43049 112.68452 35145 ft 493 kts 34°
2026-04-21 22:15 41.48195 112.74387 35153 ft 491 kts 34°
2026-04-21 22:15 41.53414 112.80237 35172 ft 489 kts 33°
2026-04-21 22:16 41.58645 112.86042 35175 ft 489 kts 34°
2026-04-21 22:16 41.63859 112.91874 35168 ft 488 kts 34°
2026-04-21 22:17 41.69052 112.97729 35191 ft 488 kts 35°
2026-04-21 22:17 41.74185 113.03543 35196 ft 486 kts 35°
2026-04-21 22:18 41.79297 113.09441 35189 ft 487 kts 40°
2026-04-21 22:18 41.81498 113.12929 35173 ft 493 kts 51°
2026-04-21 22:18 41.83223 113.16922 35193 ft 498 kts 62°
2026-04-21 22:19 41.85145 113.25858 35188 ft 502 kts 82°
2026-04-21 22:19 41.85898 113.35083 35186 ft 501 kts 82°
2026-04-21 22:20 41.86629 113.44370 35171 ft 500 kts 83°
2026-04-21 22:20 41.87339 113.53663 35158 ft 501 kts 83°
2026-04-21 22:21 41.88050 113.62967 35161 ft 501 kts 83°
2026-04-21 22:21 41.88751 113.72215 35161 ft 502 kts 83°
2026-04-21 22:22 41.89444 113.81532 35175 ft 502 kts 83°
2026-04-21 22:22 41.90131 113.90849 35190 ft 501 kts 83°
2026-04-21 22:23 41.90816 114.00152 35187 ft 501 kts 83°
2026-04-21 22:23 41.91483 114.09387 35189 ft 501 kts 83°
2026-04-21 22:24 41.92140 114.18700 35180 ft 501 kts 83°
2026-04-21 22:24 41.92791 114.28019 35177 ft 502 kts 83°
2026-04-21 22:25 41.93442 114.37352 35176 ft 502 kts 83°
2026-04-21 22:25 41.94085 114.46692 35188 ft 502 kts 83°
2026-04-21 22:26 41.94717 114.55973 35187 ft 503 kts 83°
2026-04-21 22:26 41.95348 114.65324 35188 ft 503 kts 83°
2026-04-21 22:27 41.95965 114.74677 35196 ft 503 kts 83°
2026-04-21 22:27 41.96577 114.83975 35198 ft 503 kts 83°
2026-04-21 22:28 41.97183 114.93331 35194 ft 503 kts 84°
2026-04-21 22:28 41.97777 115.02686 35190 ft 503 kts 84°
2026-04-21 22:29 41.98360 115.12050 35213 ft 502 kts 84°
2026-04-21 22:29 41.98942 115.21398 35217 ft 502 kts 84°
2026-04-21 22:30 41.99517 115.30679 35218 ft 501 kts 84°
2026-04-21 22:30 42.00088 115.40022 35214 ft 501 kts 84°
2026-04-21 22:31 42.00654 115.49361 35209 ft 501 kts 84°
2026-04-21 22:31 42.01203 115.58711 35210 ft 502 kts 84°
2026-04-21 22:32 42.01742 115.68058 35215 ft 502 kts 84°
2026-04-21 22:32 42.02268 115.77353 35227 ft 502 kts 84°
2026-04-21 22:33 42.02797 115.86712 35223 ft 502 kts 84°
2026-04-21 22:33 42.03322 115.96073 35221 ft 502 kts 84°
2026-04-21 22:34 42.03838 116.05432 35216 ft 502 kts 84°
2026-04-21 22:34 42.04343 116.14799 35206 ft 503 kts 84°
2026-04-21 22:35 42.04943 116.24110 35210 ft 503 kts 82°
2026-04-21 22:35 42.05683 116.33464 35211 ft 503 kts 82°
2026-04-21 22:36 42.06759 116.47493 35223 ft 503 kts 82°
2026-04-21 22:36 42.07412 116.56807 35218 ft 504 kts 82°
2026-04-21 22:37 42.08060 116.66195 35227 ft 504 kts 83°
2026-04-21 22:37 42.08716 116.75594 35239 ft 504 kts 82°
2026-04-21 22:38 42.09369 116.84991 35237 ft 505 kts 83°
2026-04-21 22:38 42.10006 116.94404 35254 ft 505 kts 83°
2026-04-21 22:39 42.10640 117.03768 35240 ft 506 kts 83°
2026-04-21 22:39 42.11267 117.13214 35220 ft 506 kts 83°
2026-04-21 22:40 42.11885 117.22658 35215 ft 506 kts 83°
2026-04-21 22:40 42.12506 117.32106 35209 ft 507 kts 83°
2026-04-21 22:41 42.13130 117.41496 35201 ft 507 kts 83°
2026-04-21 22:41 42.13755 117.50956 35197 ft 507 kts 83°
2026-04-21 22:42 42.14364 117.60421 35207 ft 508 kts 83°
2026-04-21 22:42 42.14962 117.69899 35190 ft 508 kts 83°
2026-04-21 22:43 42.15553 117.79321 35199 ft 508 kts 83°
2026-04-21 22:43 42.16143 117.88823 35203 ft 509 kts 83°
2026-04-21 22:44 42.16722 117.98334 35200 ft 509 kts 83°
2026-04-21 22:44 42.17293 118.07859 35201 ft 509 kts 83°
2026-04-21 22:45 42.17863 118.17379 35208 ft 510 kts 83°
2026-04-21 22:45 42.18406 118.26843 35198 ft 511 kts 84°
2026-04-21 22:46 42.18652 118.36425 35195 ft 512 kts 88°
2026-04-21 22:46 42.18665 118.46026 35198 ft 512 kts 88°
2026-04-21 22:47 42.18699 118.55639 35195 ft 513 kts 88°
2026-04-21 22:47 42.18808 118.65179 35199 ft 512 kts 87°
2026-04-21 22:48 42.18872 118.74796 35202 ft 514 kts 92°
2026-04-21 22:48 42.17457 118.84211 35202 ft 514 kts 111°
2026-04-21 22:49 42.14330 118.92816 35197 ft 511 kts 120°
2026-04-21 22:49 42.10971 119.01190 35206 ft 511 kts 120°
2026-04-21 22:50 42.07604 119.09625 35214 ft 512 kts 120°
2026-04-21 22:50 42.04215 119.18041 35199 ft 511 kts 121°
2026-04-21 22:51 42.00810 119.26447 35205 ft 512 kts 120°
2026-04-21 22:51 41.97431 119.34789 35204 ft 512 kts 121°
2026-04-21 22:52 41.94015 119.43178 35214 ft 512 kts 121°
2026-04-21 22:52 41.90637 119.51606 35213 ft 513 kts 120°
2026-04-21 22:53 41.87300 119.60059 35207 ft 513 kts 120°
2026-04-21 22:53 41.83960 119.68509 35202 ft 513 kts 120°
2026-04-21 22:54 41.80616 119.76873 35197 ft 512 kts 120°
2026-04-21 22:54 41.77232 119.85278 35190 ft 512 kts 121°
2026-04-21 22:55 41.73848 119.93673 35188 ft 512 kts 120°
2026-04-21 22:55 41.70470 120.02061 35177 ft 512 kts 121°
2026-04-21 22:56 41.67117 120.10345 35177 ft 512 kts 121°
2026-04-21 22:56 41.63715 120.18718 35179 ft 512 kts 121°
2026-04-21 22:57 41.60312 120.27080 35182 ft 512 kts 121°
2026-04-21 22:57 41.56945 120.35367 35180 ft 512 kts 119°
2026-04-21 22:58 41.54605 120.44353 35179 ft 515 kts 101°
2026-04-21 22:58 41.54243 120.53858 35166 ft 513 kts 84°
2026-04-21 22:59 41.54758 120.63364 35160 ft 514 kts 85°
2026-04-21 22:59 41.55240 120.72829 35163 ft 515 kts 85°
2026-04-21 23:00 41.55724 120.82363 35165 ft 515 kts 85°
2026-04-21 23:00 41.56209 120.91908 35167 ft 515 kts 85°
2026-04-21 23:01 41.56685 121.01460 35185 ft 516 kts 85°
2026-04-21 23:01 41.57151 121.10971 35170 ft 517 kts 85°
2026-04-21 23:02 41.57600 121.20556 35155 ft 517 kts 86°
2026-04-21 23:02 41.57923 121.30160 35154 ft 518 kts 87°
2026-04-21 23:03 41.58143 121.39770 35146 ft 518 kts 88°
2026-04-21 23:03 41.58369 121.49360 34858 ft 521 kts 88°
2026-04-21 23:04 41.58501 121.54202 34612 ft 521 kts 87°
2026-04-21 23:04 41.58638 121.59027 34398 ft 521 kts 87°
2026-04-21 23:04 41.58773 121.63860 34163 ft 521 kts 87°
2026-04-21 23:04 41.58903 121.68693 33908 ft 521 kts 87°
2026-04-21 23:05 41.59029 121.73519 33629 ft 521 kts 87°
2026-04-21 23:05 41.59151 121.78360 33357 ft 521 kts 87°
2026-04-21 23:05 41.59268 121.83190 33088 ft 521 kts 87°
2026-04-21 23:05 41.59380 121.87962 32821 ft 521 kts 87°
2026-04-21 23:06 41.59492 121.92807 32557 ft 521 kts 87°
2026-04-21 23:06 41.59600 121.97640 32295 ft 522 kts 87°
2026-04-21 23:06 41.59708 122.02485 32034 ft 522 kts 87°
2026-04-21 23:06 41.59816 122.07338 31776 ft 522 kts 87°
2026-04-21 23:07 41.59699 122.12186 31519 ft 524 kts 95°
2026-04-21 23:07 41.59197 122.17009 31271 ft 524 kts 98°
2026-04-21 23:07 41.58658 122.21829 31012 ft 526 kts 98°
2026-04-21 23:07 41.58130 122.26575 30794 ft 528 kts 98°
2026-04-21 23:08 41.57589 122.31450 30545 ft 529 kts 98°
2026-04-21 23:08 41.57049 122.36309 29432 ft 532 kts 97°
2026-04-21 23:08 41.56501 122.41235 27974 ft 539 kts 97°
2026-04-21 23:08 41.55949 122.46191 26718 ft 540 kts 97°
2026-04-21 23:09 41.55388 122.51164 25442 ft 542 kts 97°
2026-04-21 23:09 41.54822 122.56117 24118 ft 537 kts 97°
2026-04-21 23:09 41.54266 122.60959 22724 ft 530 kts 97°
2026-04-21 23:09 41.53712 122.65765 21702 ft 520 kts 97°
2026-04-21 23:10 41.53167 122.70472 20786 ft 513 kts 98°
2026-04-21 23:10 41.52622 122.75180 19955 ft 505 kts 98°
2026-04-21 23:10 41.52089 122.79767 18943 ft 496 kts 98°
2026-04-21 23:10 41.51566 122.84276 18050 ft 488 kts 98°
2026-04-21 23:11 41.51048 122.88723 17154 ft 481 kts 98°
2026-04-21 23:11 41.50541 122.93059 16348 ft 472 kts 98°
2026-04-21 23:11 41.50054 122.97216 15580 ft 464 kts 98°
2026-04-21 23:11 41.49757 123.01408 14828 ft 456 kts 89°
2026-04-21 23:12 41.49988 123.05474 14110 ft 447 kts 78°
2026-04-21 23:12 41.50731 123.09386 13371 ft 434 kts 68°
2026-04-21 23:12 41.51922 123.12961 12697 ft 419 kts 57°
2026-04-21 23:12 41.53510 123.16156 12035 ft 401 kts 46°
2026-04-21 23:13 41.55265 123.18838 11417 ft 393 kts 43°
2026-04-21 23:13 41.57028 123.21477 11134 ft 379 kts 43°
2026-04-21 23:13 41.58707 123.24018 11008 ft 361 kts 43°
2026-04-21 23:13 41.60330 123.26486 10877 ft 346 kts 43°
2026-04-21 23:14 41.61858 123.28810 10762 ft 332 kts 43°
2026-04-21 23:14 41.62856 123.30322 10681 ft 323 kts 42°
2026-04-21 23:14 41.64240 123.32442 10513 ft 312 kts 42°
2026-04-21 23:14 41.65648 123.34581 10239 ft 307 kts 41°
2026-04-21 23:15 41.67071 123.36707 9998 ft 302 kts 41°
2026-04-21 23:15 41.68476 123.38794 9843 ft 301 kts 41°
2026-04-21 23:15 41.69872 123.40870 9709 ft 300 kts 41°
2026-04-21 23:15 41.71278 123.42831 9576 ft 297 kts 38°
2026-04-21 23:16 41.72778 123.44773 9006 ft 300 kts 37°
2026-04-21 23:16 41.74278 123.46655 8639 ft 287 kts 36°
2026-04-21 23:16 41.75668 123.48404 8494 ft 268 kts 36°
2026-04-21 23:16 41.76992 123.50086 8369 ft 250 kts 36°
2026-04-21 23:17 41.78190 123.51654 8256 ft 236 kts 37°
2026-04-21 23:17 41.79301 123.53258 7888 ft 234 kts 40°
2026-04-21 23:17 41.80384 123.54895 7561 ft 234 kts 40°
2026-04-21 23:17 41.81454 123.56531 7248 ft 233 kts 41°
2026-04-21 23:18 41.82508 123.58145 6940 ft 233 kts 41°
2026-04-21 23:18 41.83580 123.59789 6621 ft 231 kts 41°
2026-04-21 23:18 41.84611 123.61389 6314 ft 231 kts 45°
2026-04-21 23:18 41.85188 123.63397 5987 ft 243 kts 85°
2026-04-21 23:19 41.84693 123.65537 5638 ft 245 kts 126°
2026-04-21 23:19 41.83553 123.67199 5288 ft 241 kts 139°
2026-04-21 23:19 41.82289 123.68651 4934 ft 237 kts 142°
2026-04-21 23:19 41.80956 123.69912 4578 ft 233 kts 160°
2026-04-21 23:20 41.79419 123.70210 4303 ft 217 kts 192°
2026-04-21 23:20 41.78077 123.69526 4116 ft 199 kts 220°
2026-04-21 23:20 41.77129 123.68292 3877 ft 185 kts 234°
2026-04-21 23:20 41.76322 123.67055 3622 ft 172 kts 235°
2026-04-21 23:21 41.75560 123.65889 3409 ft 163 kts 236°
2026-04-21 23:21 41.74824 123.64767 3191 ft 158 kts 236°
2026-04-21 23:21 41.74123 123.63701 2982 ft 149 kts 236°
2026-04-21 23:21 41.73442 123.62665 2766 ft 148 kts 235°
2026-04-21 23:22 41.72760 123.61626 2562 ft 149 kts 235°
2026-04-21 23:22 41.72076 123.60588 2364 ft 148 kts 234°
2026-04-21 23:22 41.71393 123.59550 2169 ft 149 kts 234°
2026-04-21 23:22 41.70718 123.58525 1957 ft 149 kts 234°
2026-04-21 23:23 41.70035 123.57489 1757 ft 148 kts 234°
2026-04-21 23:23 41.69357 123.56462 1558 ft 148 kts 234°
2026-04-21 23:23 41.68686 123.55444 1353 ft 145 kts 233°
2026-04-21 23:23 41.68047 123.54476 1160 ft 142 kts 233°
2026-04-21 23:24 41.67398 123.53492 957 ft 141 kts 233°
2026-04-21 23:24 41.66976 123.52853 838 ft 139 kts 232°
2026-04-21 23:24 41.66159 123.51616 624 ft 137 kts 231°
2026-04-21 23:24 41.65566 123.50719 431 ft 134 kts 229°
2026-04-21 23:25 41.64981 123.49832 265 ft 133 kts 230°
2026-04-21 23:25 41.64404 123.48960 209 ft 109 kts 229°
2026-04-21 23:25 41.64018 123.48368 209 ft 59 kts 229°
2026-04-21 23:25 41.63796 123.48046 202 ft 44 kts 220°
2026-04-21 23:26 41.63573 123.47900 203 ft 31 kts 200°
2026-04-21 23:26 41.63390 123.47783 206 ft 26 kts 221°
2026-04-21 23:26 41.63272 123.47850 200 ft 21 kts 115°
2026-04-21 23:26 41.63339 123.48002 210 ft 20 kts 48°
2026-04-21 23:27 41.63426 123.48146 209 ft 20 kts 66°
2026-04-21 23:27 41.63367 123.48261 206 ft 14 kts 168°
2026-04-21 23:27 41.63337 123.48270 204 ft 0 kts 167°